RADUGA 1 [-]

Last updated on Oct. 25, 2020, 5:56 a.m. UTC

1 08513U 75123A   20298.83723258 -.00000025  00000-0  00000+0 0  9991
2 08513   7.9943 296.7122 0005791 206.6078 256.9620  1.00282508174278
UTC
Height (km)
Latitude
Longitude
Inclination
Orbital Period
UTC large
Height (km)
Speed (km/s)
/
Latitude / Longitude
Inclination (degrees)
Orbital Period (minutes)
Azimuth
Elevation
Range (km)
Doppler Factor
iOS Compass Heading
iOS Angle

Next 30 passes for location: Hong Kong

Rise time Rise Azimuth (degrees) Set time Set Azimuth (degrees) Duration Max altitude (degrees)

No matching passes for this satellites